Location: Glodghile?ti
(45.9667°N, 22.4667°E)
Time: 01:38:59
(UTC+00:00)

Daily predictions for brighter satellites

Satellite Brightness Start Highest point End
(mag) Time Altitude Azimuth Time Altitude Azimuth Time Altitude Azimuth
CZ-3 R/B 4.4 01:45:41 44° SSW 01:45:41 44° SSW 01:56:58 10° SE
Cosmos 2082 Rocket 4.2 02:07:34 22° ESE 02:08:13 23° ESE 02:12:31 10° NE
COSMOS 2455 4.3 02:14:59 32° ENE 02:14:59 32° ENE 02:19:42 10° ESE
Cosmos 1980 Rocket 3.5 02:32:25 34° SE 02:32:25 34° SE 02:35:36 10° SE
Cosmos 2333 Rocket 4.3 02:51:54 15° N 02:54:47 21° NE 02:59:07 10° E
Cosmos 2142 Rocket 4.5 03:02:16 42° N 03:04:33 81° E 03:10:45 10° S
USA 234 4.1 03:04:06 10° ENE 03:09:52 34° N 03:10:26 34° NNW
Helios 1A Rocket 4.4 03:19:11 10° SE 03:22:02 27° ENE 03:22:13 27° ENE
Cosmos 2322 Rocket 4.1 03:19:55 12° N 03:23:59 25° NE 03:28:37 10° ESE
SL-4 R/B 3.8 03:29:31 18° NE 03:29:31 18° NE 03:30:44 10° ENE
Nadezhda 4 Rocket 4.0 03:24:08 10° S 03:30:26 80° E 03:36:44 10° N
NOSS 2-1 (D) 3.5 03:32:01 69° ESE 03:32:01 69° ESE 03:36:16 10° SE
Cosmos 1726 Rocket 4.1 03:31:07 26° N 03:33:21 54° ENE 03:37:30 10° SSE
USA 59 Rocket -0.1 03:34:44 74° SE 03:34:44 74° SE 03:39:09 10° SE
Cosmos 2237 4.3 03:33:42 35° NNW 03:36:13 78° ENE 03:41:55 10° SSE
CZ-4 R/B 4.1 03:32:41 10° NNE 03:37:19 66° ESE 03:41:53 10° S
NOSS 3-1 (C) 4.1 03:34:05 31° NNW 03:38:02 80° NE 03:46:55 10° SE
NOSS 2-1 (E) 3.3 03:39:18 72° NE 03:39:23 72° NE 03:43:58 10° SE
COSMOS 2406 3.5 03:34:40 10° SSW 03:40:16 66° ESE 03:45:54 10° NNE
Cosmos 841 Rocket 3.5 03:36:38 10° SSW 03:41:51 82° ESE 03:47:08 10° NNE
BREEZE-M DEB (TANK) 4.3 03:44:05 37° W 03:45:57 47° SW 03:49:43 10° SE
Cosmos 1933 4.0 03:52:07 37° SSW 03:52:07 37° SSW 03:54:36 10° S
SL-16 R/B 2.7 03:46:48 18° NNW 03:50:57 59° ENE 03:56:32 10° SE
Cosmos 2082 Rocket 2.1 03:49:32 34° WSW 03:51:49 58° WNW 03:57:23 10° NNE
Cosmos 1892 Rocket 3.9 03:47:43 10° S 03:52:01 65° E 03:56:23 10° NNE
NOSS 2-1 (C) 3.2 03:58:58 58° W 03:59:24 64° SW 04:04:07 10° SSE
COSMOS 2455 2.9 03:58:09 35° WNW 04:00:32 56° WSW 04:06:22 10° SSE
IRS-1D 3.4 03:58:13 10° N 04:03:10 64° WNW 04:08:10 10° SSW
Cosmos 1898 Rocket 3.6 04:02:27 35° NW 04:04:20 52° WSW 04:09:25 10° S
ATLAS 3B R/B 4.4 03:59:03 13° NNW 04:04:21 26° NNE 04:10:36 10° ENE
FengYun 1-2 T 4.5 04:00:29 10° N 04:05:52 47° WNW 04:11:14 10° SW
BREEZE-M DEB (TANK) 2.8 04:12:06 54° WNW 04:12:30 62° NNW 04:14:48 10° ENE
Cosmos 1980 Rocket 3.4 04:14:14 22° WSW 04:14:14 22° WSW 04:17:47 10° SSW
Cosmos 2278 3.8 04:09:09 14° NNW 04:14:05 76° ENE 04:19:43 10° SSE
Cosmos 1627 Rocket 4.4 04:11:08 10° S 04:17:15 86° W 04:23:25 10° N
Cosmos 2369 4.3 04:16:16 27° WNW 04:18:20 36° WSW 04:23:26 10° S
Cosmos-2242 3.1 04:14:08 10° N 04:18:23 73° E 04:22:33 10° SSE
COSMO-SKYMED 1 2.5 04:16:10 10° S 04:20:11 52° W 04:22:50 20° NNW
BREEZE-M DEB (TANK) 2.8 04:20:47 39° NW 04:21:21 47° N 04:25:37 10° ENE
Meteor 2-2 Rocket 4.3 04:16:33 10° N 04:22:15 85° ENE 04:28:02 10° SSE
SKYMED 2 4.2 04:18:31 10° SSW 04:22:29 35° W 04:24:01 27° WNW
Meteor 2-20 Rocket 4.3 04:18:27 10° N 04:24:16 83° E 04:29:58 10° S
Cosmos 2058 Rocket 3.0 04:20:15 10° N 04:24:44 88° WSW 04:29:08 10° S
Cosmos 1484 Rocket 2.3 04:24:48 10° NNE 04:28:14 87° WNW 04:31:37 10° SSW
Tiangong -0.1 04:27:21 16° SW 04:28:22 18° SSW 04:30:38 10° SSE
Cosmos 1937 Rocket 3.8 04:25:55 20° NW 04:29:00 42° WSW 04:33:48 10° S
Cosmos 858 Rocket 4.5 04:24:54 15° NNW 04:29:05 60° WSW 04:34:10 10° S
NOAA 12 4.3 04:24:18 10° N 04:29:19 44° WNW 04:34:18 10° SW
Cosmos 220 Rocket 4.4 04:28:08 11° SW 04:31:38 35° WNW 04:35:26 10° N
Okean 1 2.9 04:29:49 10° N 04:33:24 89° W 04:36:57 10° S
ARIANE 5 R/B 4.3 04:29:10 10° NNE 04:33:56 35° E 04:38:42 10° SSE
Cosmos 2333 Rocket 2.2 04:33:59 10° NNW 04:39:47 81° WSW 04:45:31 10° SSE
BREEZE-M DEB (TANK) 4.5 04:15:48 10° WSW 04:40:08 75° NNW 04:45:19 10° ENE
NOSS 3-1 (A) 4.1 04:37:46 12° NW 04:44:35 87° SW 04:53:34 10° SE
IRIDIUM 114 4.4 04:40:51 10° S 04:46:04 85° E 04:51:19 10° N
Cosmos 2360 Rocket 2.3 04:40:54 10° NNW 04:46:34 80° ENE 04:52:11 10° SSE
Cosmos 2026 Rocket 4.1 04:41:06 10° SSW 04:46:57 50° WNW 04:52:52 10° N
SMAP 3.6 04:42:24 10° NNE 04:47:02 64° ESE 04:51:39 10° S
BREEZE M DEB (TANK) 2.9 04:47:28 10° SW 04:49:41 44° SE 04:53:46 10° ENE
USA 234 4.1 04:45:56 10° E 04:51:57 40° NNE 04:57:47 11° NW
Cosmos 1814 Rocket 4.1 04:47:41 10° SSW 04:52:54 85° ESE 04:58:14 10° NNE
Landsat 7 4.5 04:48:23 10° NNE 04:53:01 59° E 04:57:35 10° S
CBERS-1 3.9 04:48:52 10° N 04:53:58 74° WNW 04:59:02 10° SSW
Cosmos 2237 Rocket 4.5 04:51:44 10° N 04:54:25 13° NE 04:57:04 10° ENE
Helios 1A Rocket 3.9 04:52:13 10° SW 04:54:38 19° W 04:55:47 16° WNW
IRIDIUM 103 4.3 04:50:01 10° S 04:55:14 80° W 05:00:30 10° N
IGS 5A 3.5 04:55:19 10° N 04:59:11 49° WNW 05:03:02 10° SSW
Cosmos 1758 Rocket 3.5 04:58:09 10° S 05:02:34 83° W 05:07:00 10° N
Meteor 2-6 Rocket 4.4 04:57:14 10° NNW 05:03:13 81° W 05:09:09 10° S
Cosmos 2219 Rocket 2.5 04:59:48 10° NNW 05:05:28 69° ENE 05:11:04 10° SE
SL-4 R/B 2.0 05:03:15 13° NW 05:05:56 46° NNE 05:08:59 10° E
Thor Agena Rocket 3.5 05:01:12 10° NNE 05:06:17 83° WNW 05:11:18 10° SSW
Cosmos 1743 2.3 05:04:39 10° S 05:07:52 86° E 05:11:08 10° N
Cosmos 2322 Rocket 2.3 05:02:50 10° NNW 05:08:29 64° WSW 05:14:04 10° SSE
Cosmos 1553 Rocket 4.1 05:02:58 10° NNW 05:09:16 64° W 05:15:34 10° S
Cosmos 1092 Rocket 4.5 05:05:06 10° SW 05:10:55 38° WNW 05:16:42 10° N
Cosmos 1733 2.1 05:10:21 10° SW 05:12:03 30° WNW 05:13:46 10° N
IRIDIUM 106 4.4 05:08:29 10° SSW 05:13:35 56° W 05:18:44 10° N
Cosmos 2333 4.3 05:17:10 10° NNW 05:22:53 69° WSW 05:28:30 10° SSE
USA 59 Rocket 2.2 05:22:13 10° WSW 05:23:02 10° WSW 05:23:53 10° SW
SJ-12 3.7 05:19:49 10° N 05:23:38 73° WNW 05:27:25 10° SSW
YAOGAN 1 4.4 05:20:55 10° NNE 05:24:51 35° E 05:28:45 10° SSE
COSMOS 2406 4.2 05:20:27 10° WSW 05:25:01 24° NW 05:29:38 10° N
